UTA103 URMM-UUDD

Flight info

Callsign UTA103
Flight time N/A
Altitude 34000
Route LARIN G481 NIRGA N82 RINGU N50 OLOPI
Aircraft T134/M-SDRWY/C

Departure

Time 2026-04-25 19:40
Airport Mineralnye Vody Airport (URMM)

Arrival

Time N/A
Airport Domodedovo International Airport (UUDD)
Time Latitude Longitude Altitude Speed Heading
2026-04-25 19:35 44.22021 43.08582 1057 ft 17 kts 302°
2026-04-25 19:35 44.22082 43.08448 1057 ft 15 kts 302°
2026-04-25 19:35 44.22139 43.08324 1057 ft 14 kts 303°
2026-04-25 19:36 44.22201 43.08186 1057 ft 23 kts 302°
2026-04-25 19:36 44.22312 43.07936 1057 ft 35 kts 302°
2026-04-25 19:36 44.22442 43.07660 1057 ft 33 kts 304°
2026-04-25 19:36 44.22558 43.07393 1057 ft 31 kts 303°
2026-04-25 19:37 44.22672 43.07148 1057 ft 29 kts 305°
2026-04-25 19:37 44.22793 43.06924 1057 ft 27 kts 308°
2026-04-25 19:37 44.22910 43.06708 1057 ft 30 kts 307°
2026-04-25 19:37 44.23048 43.06452 1057 ft 35 kts 307°
2026-04-25 19:38 44.23204 43.06169 1057 ft 36 kts 306°
2026-04-25 19:38 44.23330 43.06020 1057 ft 19 kts 11°
2026-04-25 19:38 44.23447 43.06103 1057 ft 18 kts 32°
2026-04-25 19:38 44.23550 43.06193 1057 ft 16 kts 32°
2026-04-25 19:39 44.23576 43.06319 1057 ft 14 kts 118°
2026-04-25 19:39 44.23565 43.06347 1057 ft 0 kts 120°
2026-04-25 19:39 44.23474 43.06551 1057 ft 56 kts 122°
2026-04-25 19:39 44.23156 43.07254 1057 ft 115 kts 122°
2026-04-25 19:40 44.22633 43.08407 1070 ft 162 kts 122°
2026-04-25 19:40 44.21962 43.09767 1426 ft 176 kts 124°
2026-04-25 19:40 44.21237 43.11198 2020 ft 181 kts 123°
2026-04-25 19:40 44.20539 43.12601 2763 ft 175 kts 122°
2026-04-25 19:41 44.19949 43.14061 3243 ft 183 kts 102°
2026-04-25 19:41 44.20125 43.15854 3574 ft 196 kts 53°
2026-04-25 19:41 44.21305 43.16626 4002 ft 205 kts 351°
2026-04-25 19:41 44.21766 43.16494 4273 ft 200 kts 346°
2026-04-25 19:42 44.23540 43.15938 5776 ft 162 kts 342°
2026-04-25 19:42 44.24723 43.15313 5428 ft 194 kts 341°
2026-04-25 19:42 44.26031 43.14625 5390 ft 211 kts 337°
2026-04-25 19:42 44.27239 43.13388 5435 ft 225 kts 309°
2026-04-25 19:43 44.27994 43.11414 5538 ft 236 kts 286°
2026-04-25 19:43 44.28164 43.09090 5684 ft 245 kts 263°
2026-04-25 19:43 44.27708 43.06769 5868 ft 252 kts 247°
2026-04-25 19:43 44.27181 43.04456 6145 ft 254 kts 262°
2026-04-25 19:44 44.27219 43.02010 6465 ft 255 kts 283°
2026-04-25 19:44 44.27909 42.99702 6785 ft 254 kts 305°
2026-04-25 19:44 44.29128 42.97941 7089 ft 253 kts 327°
2026-04-25 19:44 44.30712 42.96921 7391 ft 252 kts 348°
2026-04-25 19:45 44.32449 42.96780 7678 ft 250 kts 10°
2026-04-25 19:45 44.34069 42.97525 7955 ft 248 kts 32°
2026-04-25 19:45 44.35381 42.99041 8233 ft 245 kts 50°
2026-04-25 19:45 44.36537 43.00832 8517 ft 247 kts 48°
2026-04-25 19:46 44.37743 43.02519 8781 ft 249 kts 38°
2026-04-25 19:46 44.39312 43.03524 9038 ft 252 kts 11°
2026-04-25 19:46 44.41059 43.03509 9299 ft 254 kts 346°
2026-04-25 19:46 44.42734 43.02690 9568 ft 255 kts 338°
2026-04-25 19:47 44.44416 43.01925 9832 ft 256 kts 351°
2026-04-25 19:47 44.46190 43.01850 10101 ft 257 kts
2026-04-25 19:47 44.47999 43.01901 10376 ft 259 kts
2026-04-25 19:47 44.49791 43.01986 10650 ft 260 kts
2026-04-25 19:48 44.51600 43.02081 10927 ft 261 kts
2026-04-25 19:48 44.53417 43.02184 11207 ft 261 kts
2026-04-25 19:48 44.55219 43.02295 11485 ft 262 kts
2026-04-25 19:48 44.57033 43.02421 11767 ft 262 kts
2026-04-25 19:49 44.58857 43.02557 12051 ft 263 kts
2026-04-25 19:49 44.59469 43.02603 12145 ft 263 kts
2026-04-25 19:49 44.62484 43.02850 12709 ft 258 kts
2026-04-25 19:49 44.64284 43.03052 13025 ft 257 kts
2026-04-25 19:50 44.67464 43.05224 13577 ft 256 kts 30°
2026-04-25 19:50 44.68991 43.06491 13830 ft 256 kts 29°
2026-04-25 19:50 44.70530 43.07781 14072 ft 256 kts 33°
2026-04-25 19:51 44.71974 43.09245 14303 ft 256 kts 35°
2026-04-25 19:51 44.73409 43.10721 14526 ft 256 kts 36°
2026-04-25 19:51 44.74896 43.12140 14743 ft 256 kts 30°
2026-04-25 19:51 44.76420 43.13471 14953 ft 257 kts 32°
2026-04-25 19:52 44.77929 43.14793 15150 ft 257 kts 32°
2026-04-25 19:52 44.79474 43.16111 15341 ft 257 kts 31°
2026-04-25 19:52 44.81012 43.17382 15522 ft 257 kts 30°
2026-04-25 19:52 44.82559 43.18640 15697 ft 257 kts 30°
2026-04-25 19:53 44.84098 43.19878 15869 ft 258 kts 29°
2026-04-25 19:53 44.85668 43.21105 16041 ft 258 kts 29°
2026-04-25 19:53 44.87246 43.22340 16213 ft 259 kts 29°
2026-04-25 19:53 44.88826 43.23576 16384 ft 260 kts 29°
2026-04-25 19:54 44.90410 43.24816 16555 ft 261 kts 29°
2026-04-25 19:54 44.92010 43.26070 16727 ft 262 kts 29°
2026-04-25 19:54 44.93585 43.27304 16998 ft 263 kts 29°
2026-04-25 19:54 44.94129 43.27730 17098 ft 263 kts 29°
2026-04-25 19:55 44.96807 43.29829 17583 ft 267 kts 28°
2026-04-25 19:55 44.98448 43.31112 17879 ft 269 kts 27°
2026-04-25 19:55 45.00089 43.32390 18174 ft 270 kts 27°
2026-04-25 19:55 45.01732 43.33663 18471 ft 271 kts 26°
2026-04-25 19:56 45.03381 43.34936 18771 ft 272 kts 25°
2026-04-25 19:56 45.05063 43.36230 19081 ft 273 kts 24°
2026-04-25 19:56 45.06730 43.37508 19392 ft 273 kts 24°
2026-04-25 19:56 45.08392 43.38781 19709 ft 273 kts 23°
2026-04-25 19:57 45.10078 43.40052 20029 ft 271 kts 17°
2026-04-25 19:57 45.11857 43.40643 20338 ft 256 kts 351°
2026-04-25 19:57 45.13535 43.40196 20639 ft 242 kts 331°
2026-04-25 19:57 45.15090 43.39306 20934 ft 241 kts 330°
2026-04-25 19:58 45.16641 43.38387 21220 ft 240 kts 329°
2026-04-25 19:58 45.18179 43.37470 21498 ft 240 kts 329°
2026-04-25 19:58 45.19761 43.36656 21766 ft 246 kts 341°
2026-04-25 19:58 45.21457 43.36294 22029 ft 249 kts 346°
2026-04-25 19:59 45.23203 43.36163 22282 ft 254 kts 354°
2026-04-25 19:59 45.24971 43.36346 22530 ft 256 kts 357°
2026-04-25 19:59 45.26727 43.36577 22768 ft 256 kts 357°
2026-04-25 19:59 45.28507 43.36816 23004 ft 256 kts 356°
2026-04-25 20:00 45.30274 43.36841 23231 ft 252 kts 351°
2026-04-25 20:00 45.30841 43.36837 23306 ft 253 kts 351°
2026-04-25 20:00 45.33763 43.36814 23674 ft 253 kts 351°
2026-04-25 20:00 45.35523 43.36798 23889 ft 253 kts 350°
2026-04-25 20:01 45.39022 43.36555 24316 ft 251 kts 347°
2026-04-25 20:01 45.40745 43.36414 24513 ft 251 kts 347°
2026-04-25 20:01 45.42487 43.36272 24707 ft 251 kts 347°
2026-04-25 20:02 45.44225 43.36097 24903 ft 251 kts 346°
2026-04-25 20:02 45.45969 43.35915 25090 ft 251 kts 346°
2026-04-25 20:02 45.47119 43.35784 25214 ft 250 kts 344°
2026-04-25 20:02 45.49421 43.35413 25459 ft 249 kts 344°
2026-04-25 20:03 45.51138 43.35127 25639 ft 248 kts 342°
2026-04-25 20:03 45.52806 43.34638 25809 ft 243 kts 335°
2026-04-25 20:03 45.54415 43.33981 25977 ft 242 kts 334°
2026-04-25 20:03 45.56044 43.33356 26141 ft 241 kts 332°
2026-04-25 20:04 45.57098 43.32839 26251 ft 240 kts 331°
2026-04-25 20:04 45.59185 43.31781 26462 ft 239 kts 330°
2026-04-25 20:04 45.60237 43.31241 26566 ft 239 kts 329°
2026-04-25 20:04 45.62266 43.30014 26754 ft 240 kts 332°
2026-04-25 20:05 45.63853 43.29322 26890 ft 242 kts 334°
2026-04-25 20:05 45.65493 43.28677 27027 ft 243 kts 335°
2026-04-25 20:05 45.67132 43.28062 27167 ft 243 kts 335°
2026-04-25 20:05 45.68768 43.27470 27304 ft 244 kts 337°
2026-04-25 20:06 45.69862 43.27121 27393 ft 245 kts 338°
2026-04-25 20:06 45.72089 43.26441 27577 ft 245 kts 338°
2026-04-25 20:06 45.73756 43.25941 27706 ft 245 kts 338°
2026-04-25 20:06 45.75422 43.25443 27823 ft 246 kts 338°
2026-04-25 20:07 45.77083 43.24946 27972 ft 244 kts 338°
2026-04-25 20:07 45.78754 43.24446 28120 ft 249 kts 338°
2026-04-25 20:07 45.80484 43.23922 28222 ft 256 kts 338°
2026-04-25 20:07 45.82241 43.23403 28366 ft 263 kts 338°
2026-04-25 20:08 45.83456 43.23059 28489 ft 267 kts 339°